| time (UTC) | temp F | wind direction | speed MPH | gust MPH | rain 1hr in | rain 24hr in | rain mn in | humidity % | barometer mb |
| 20260904123012 | 73 | 263 | 4.0 | 8.0 | 0.00 | 0.13 | 0.00 | 92 | 1008.1 |
| 20260904121547 | 72 | 262 | 2.0 | 9.0 | 0.00 | 0.13 | 0.00 | 94 | 1008.1 |
| 20260904120013 | 72 | 266 | 3.0 | 8.0 | 0.00 | 0.13 | 0.00 | 95 | 1008.1 |
| 20260904114554 | 71 | 270 | 3.0 | 7.0 | 0.00 | 0.13 | 0.00 | 95 | 1008.2 |
| 20260904113022 | 71 | 248 | 1.0 | 9.0 | 0.00 | 0.17 | 0.00 | 95 | 1008.3 |
| 20260904111611 | 71 | 258 | 1.0 | 9.0 | 0.00 | 0.17 | 0.00 | 95 | 1008.2 |
| 20260904110036 | 71 | 264 | 1.0 | 4.0 | 0.00 | 0.17 | 0.00 | 95 | 1008.2 |
| 20260904104611 | 71 | 264 | 0.0 | 3.0 | 0.00 | 0.17 | 0.00 | 95 | 1008.2 |
| 20260904103031 | 71 | 264 | 1.0 | 3.0 | 0.00 | 0.65 | 0.00 | 95 | 1007.9 |
| 20260904101609 | 71 | 264 | 0.0 | 0.0 | 0.00 | 0.65 | 0.00 | 95 | 1007.8 |
| 20260904100043 | 71 | 264 | 0.0 | 0.0 | 0.00 | 0.65 | 0.00 | 95 | 1007.7 |
| 20260904094531 | 71 | 264 | 0.0 | 0.0 | 0.00 | 0.65 | 0.00 | 94 | 1007.5 |
| 20260904090007 | 71 | 264 | 0.0 | 4.0 | 0.00 | 0.87 | 0.00 | 94 | 1007.8 |
| 20260904084543 | 71 | 264 | 2.0 | 6.0 | 0.00 | 0.87 | 0.00 | 94 | 1007.8 |
| 20260904083104 | 71 | 275 | 3.0 | 7.0 | 0.00 | 0.88 | 0.00 | 94 | 1007.7 |
| 20260904081537 | 70 | 279 | 1.0 | 3.0 | 0.00 | 0.88 | 0.00 | 94 | 1007.7 |
| 20260904080111 | 71 | 279 | 0.0 | 0.0 | 0.00 | 0.88 | 0.00 | 94 | 1007.6 |
| 20260904074527 | 71 | 279 | 0.0 | 0.0 | 0.00 | 0.88 | 0.00 | 94 | 1007.7 |
| 20260904073106 | 71 | 279 | 0.0 | 0.0 | 0.00 | 0.88 | 0.00 | 94 | 1007.6 |
| 20260904071527 | 71 | 279 | 0.0 | 2.0 | 0.00 | 0.88 | 0.00 | 94 | 1008.2 |
| 20260904070105 | 71 | 279 | 0.0 | 2.0 | 0.00 | 0.88 | 0.00 | 94 | 1008.2 |
| 20260904064517 | 71 | 279 | 0.0 | 2.0 | 0.00 | 0.88 | 0.00 | 94 | 1008.4 |
| 20260904063048 | 71 | 279 | 0.0 | 0.0 | 0.00 | 0.88 | 0.00 | 94 | 1008.4 |
| 20260904061519 | 71 | 279 | 0.0 | 4.0 | 0.00 | 0.88 | 0.00 | 94 | 1008.4 |
| 20260904060100 | 71 | 278 | 0.0 | 4.0 | 0.00 | 0.88 | 0.00 | 94 | 1008.5 |
| 20260904054529 | 71 | 267 | 1.0 | 4.0 | 0.00 | 0.88 | 0.00 | 94 | 1008.6 |
| 20260904044533 | 71 | 277 | 2.0 | 5.0 | 0.00 | 0.88 | 0.00 | 94 | 1009.4 |
| 20260904043109 | 71 | 279 | 1.0 | 5.0 | 0.00 | 0.88 | 0.88 | 94 | 1009.5 |
| 20260904041536 | 71 | 274 | 2.0 | 7.0 | 0.00 | 0.88 | 0.88 | 94 | 1009.5 |
| 20260904040003 | 71 | 272 | 2.0 | 7.0 | 0.00 | 0.88 | 0.88 | 94 | 1009.4 |
| 20260904034552 | 71 | 280 | 2.0 | 6.0 | 0.00 | 0.88 | 0.88 | 94 | 1009.7 |
| 20260904033015 | 71 | 285 | 0.0 | 0.0 | 0.00 | 0.88 | 0.88 | 94 | 1010.0 |
| 20260904031552 | 71 | 285 | 0.0 | 7.0 | 0.00 | 0.88 | 0.88 | 94 | 1009.7 |
| 20260904030016 | 71 | 283 | 0.0 | 3.0 | 0.00 | 0.88 | 0.88 | 94 | 1009.7 |
| 20260904024555 | 71 | 124 | 3.0 | 7.0 | 0.00 | 0.88 | 0.88 | 94 | 1010.0 |
| 20260904023021 | 71 | 276 | 1.0 | 3.0 | 0.00 | 0.88 | 0.88 | 94 | 1010.1 |
| 20260904021609 | 71 | 276 | 0.0 | 3.0 | 0.00 | 0.88 | 0.88 | 94 | 1010.2 |
| 20260904020036 | 71 | 277 | 1.0 | 4.0 | 0.00 | 0.88 | 0.88 | 94 | 1010.2 |
| 20260904014631 | 71 | 272 | 0.0 | 0.0 | 0.00 | 0.88 | 0.88 | 93 | 1010.4 |
| 20260904013039 | 71 | 272 | 0.0 | 0.0 | 0.00 | 0.88 | 0.88 | 93 | 1010.9 |
| 20260904011505 | 71 | 272 | 0.0 | 3.0 | 0.00 | 0.88 | 0.88 | 93 | 1010.7 |
| 20260904010045 | 72 | 272 | 0.0 | 4.0 | 0.00 | 0.88 | 0.88 | 93 | 1010.6 |
| 20260904004504 | 72 | 279 | 2.0 | 5.0 | 0.00 | 0.88 | 0.88 | 93 | 1010.6 |
| 20260904003043 | 72 | 279 | 0.0 | 3.0 | 0.00 | 0.88 | 0.88 | 93 | 1010.3 |
| 20260904001518 | 72 | 280 | 1.0 | 5.0 | 0.00 | 0.88 | 0.88 | 93 | 1010.0 |
| 20260904000112 | 72 | 279 | 1.0 | 6.0 | 0.00 | 0.88 | 0.88 | 93 | 1010.1 |
| 20260903234510 | 72 | 279 | 0.0 | 3.0 | 0.00 | 0.88 | 0.88 | 93 | 1009.9 |
| 20260903233050 | 72 | 279 | 2.0 | 4.0 | 0.00 | 0.88 | 0.88 | 93 | 1009.7 |
| 20260903231529 | 72 | 275 | 0.0 | 5.0 | 0.00 | 0.88 | 0.88 | 92 | 1009.7 |
| 20260903230054 | 73 | 124 | 3.0 | 8.0 | 0.00 | 0.88 | 0.88 | 92 | 1009.8 |
| 20260903224531 | 73 | 253 | 3.0 | 9.0 | 0.00 | 0.88 | 0.88 | 91 | 1010.0 |
| 20260903223051 | 74 | 283 | 6.0 | 11.0 | 0.00 | 0.88 | 0.88 | 90 | 1010.0 |
| 20260903221613 | 74 | 124 | 3.0 | 10.0 | 0.00 | 0.88 | 0.88 | 90 | 1010.1 |
| 20260903220046 | 74 | 247 | 5.0 | 17.0 | 0.00 | 0.88 | 0.88 | 90 | 1010.0 |
| 20260903214526 | 74 | 256 | 5.0 | 12.0 | 0.00 | 0.88 | 0.88 | 90 | 1009.9 |
| 20260903213102 | 75 | 250 | 4.0 | 14.0 | 0.00 | 0.88 | 0.88 | 90 | 1009.9 |
| 20260903211524 | 74 | 124 | 6.0 | 14.0 | 0.00 | 0.88 | 0.88 | 90 | 1010.0 |
| 20260903210126 | 74 | 264 | 6.0 | 15.0 | 0.00 | 0.88 | 0.88 | 91 | 1010.0 |
| 20260903204519 | 75 | 254 | 4.0 | 15.0 | 0.00 | 0.88 | 0.88 | 89 | 1010.0 |
| 20260903203107 | 75 | 253 | 8.0 | 16.0 | 0.00 | 0.88 | 0.88 | 89 | 1010.0 |
| 20260903201512 | 75 | 216 | 8.0 | 14.0 | 0.00 | 0.88 | 0.88 | 89 | 1010.0 |
| 20260903200045 | 75 | 232 | 5.0 | 13.0 | 0.00 | 0.88 | 0.88 | 89 | 1010.3 |
| 20260903194511 | 76 | 252 | 6.0 | 11.0 | 0.00 | 0.88 | 0.88 | 88 | 1010.3 |
| 20260903193047 | 76 | 124 | 4.0 | 11.0 | 0.00 | 0.88 | 0.88 | 89 | 1010.7 |
| 20260903191514 | 76 | 124 | 7.0 | 12.0 | 0.00 | 0.88 | 0.88 | 89 | 1010.9 |
| 20260903190050 | 76 | 217 | 7.0 | 12.0 | 0.00 | 0.88 | 0.88 | 89 | 1010.9 |
| 20260903184517 | 75 | 248 | 3.0 | 11.0 | 0.00 | 0.88 | 0.88 | 90 | 1011.1 |
| 20260903183058 | 75 | 255 | 4.0 | 11.0 | 0.00 | 0.88 | 0.88 | 90 | 1011.5 |
| 20260903181524 | 74 | 124 | 4.0 | 11.0 | 0.00 | 0.88 | 0.88 | 91 | 1011.5 |
| 20260903180109 | 74 | 251 | 2.0 | 12.0 | 0.00 | 0.88 | 0.88 | 91 | 1011.4 |
| 20260903174536 | 74 | 252 | 5.0 | 13.0 | 0.00 | 0.88 | 0.88 | 92 | 1011.5 |
| 20260903173005 | 73 | 124 | 5.0 | 13.0 | 0.00 | 0.88 | 0.88 | 93 | 1011.5 |
| 20260903171541 | 73 | 124 | 6.0 | 13.0 | 0.00 | 0.88 | 0.88 | 93 | 1011.9 |
| 20260903170012 | 73 | 242 | 7.0 | 14.0 | 0.00 | 0.88 | 0.88 | 94 | 1011.9 |
| 20260903164602 | 73 | 124 | 2.0 | 9.0 | 0.00 | 0.88 | 0.88 | 95 | 1011.6 |
| 20260903163013 | 72 | 124 | 4.0 | 8.0 | 0.00 | 0.88 | 0.88 | 95 | 1011.6 |
| 20260903161546 | 72 | 124 | 4.0 | 8.0 | 0.00 | 0.88 | 0.88 | 95 | 1011.6 |
| 20260903160007 | 73 | 253 | 3.0 | 6.0 | 0.00 | 0.88 | 0.88 | 95 | 1011.7 |
| 20260903154606 | 73 | 124 | 4.0 | 9.0 | 0.00 | 0.88 | 0.88 | 96 | 1011.8 |
| 20260903153019 | 73 | 124 | 1.0 | 8.0 | 0.00 | 0.88 | 0.88 | 96 | 1011.8 |
| 20260903151556 | 72 | 242 | 2.0 | 8.0 | 0.00 | 0.88 | 0.88 | 96 | 1012.2 |
| 20260903150023 | 72 | 247 | 2.0 | 8.0 | 0.00 | 0.88 | 0.88 | 96 | 1012.5 |
| 20260903144607 | 72 | 243 | 4.0 | 11.0 | 0.00 | 0.88 | 0.88 | 96 | 1012.5 |
| 20260903143036 | 71 | 254 | 5.0 | 10.0 | 0.00 | 0.88 | 0.88 | 96 | 1012.6 |
| 20260903141614 | 71 | 124 | 2.0 | 12.0 | 0.00 | 0.88 | 0.88 | 96 | 1013.3 |
| 20260903140016 | 71 | 231 | 4.0 | 13.0 | 0.00 | 0.88 | 0.88 | 96 | 1013.2 |
| 20260903134557 | 71 | 124 | 6.0 | 14.0 | 0.02 | 0.88 | 0.88 | 96 | 1013.3 |
| 20260903133020 | 70 | 249 | 6.0 | 16.0 | 0.02 | 0.88 | 0.88 | 95 | 1013.3 |
| 20260903131548 | 70 | 256 | 8.0 | 17.0 | 0.02 | 0.88 | 0.88 | 96 | 1013.0 |
| 20260903130019 | 70 | 124 | 8.0 | 18.0 | 0.06 | 0.88 | 0.88 | 95 | 1012.9 |
| 20260903124546 | 70 | 124 | 7.0 | 13.0 | 0.05 | 0.86 | 0.86 | 95 | 1013.3 |